Weather History for West Palm Beach, FL

Change the Weather History Date:

Thursday, December 6, 2012

  Actual Average Record
Temperature  
Mean Temperature 75 °F 70 °F  
Max Temperature 80 °F 77 °F 87 °F (1972)
Min Temperature 69 °F 62 °F 41 °F (1968)
Degree Days  
Heating Degree Days 0 1  
Month to date heating degree days 0 6  
Since 1 July heating degree days 12 18  
Cooling Degree Days 10 6  
Month to date cooling degree days 65 36  
Year to date cooling degree days 4089 3902  
Growing Degree Days 24 (Base 50)    
Moisture  
Dew Point 65 °F    
Average Humidity 72    
Maximum Humidity 90    
Minimum Humidity 54    
Precipitation  
Precipitation 0.05 in 0.10 in 3.97 in (1986)
Month to date precipitation 0.07 0.66  
Year to date precipitation 77.67 59.61  
Snow  
Snow 0.00 in - - ()
Month to date snowfall 0.0  
Since 1 July snowfall 0.0  
Snow Depth 0.00 in    
Sea Level Pressure  
Sea Level Pressure 29.96 in    
Wind  
Wind Speed 7 mph (East)    
Max Wind Speed 18 mph    
Max Gust Speed 24 mph    
Visibility 10 miles    
Events Rain    
T = Trace of Precipitation, MM = Missing Value Source: NWS Daily Summary

Daily Weather History Graph

Daily Weather History Graph

Search for Another Location

Airport:

Trip Planner

Search our weather history database for the weather conditions in past years. The results will help you decide how hot, cold, wet, or windy it might be!

Date:

Astronomy

Dec. 06, 2012 Rise Set
Actual Time 6:55 AM EST 5:27 PM EST
Civil Twilight 6:30 AM EST 5:52 PM EST
Nautical Twilight 6:01 AM EST 6:21 PM EST
Astronomical Twilight 5:33 AM EST 6:49 PM EST
Moon No Moon Rise 12:18 PM EST (12/6)
Length of Visible Light 11h 22m
Length of Day
10h 31m
Waning Gibbous, 49% of the Moon is Illuminated
Dec 6
Waning Gibbous
Dec 13
New
Dec 20
First Quarter
Dec 28
Full
Jan 4
Last Quarter

Hourly Weather History & Observations

Time (EST) Temp. Dew Point Humidity Pressure Visibility Wind Dir Wind Speed Gust Speed Precip Events Conditions
12:53 AM 73.9 °F 64.0 °F 71% 30.01 in 10.0 mi East 12.7 mph - N/A   Mostly Cloudy
1:53 AM 73.0 °F 63.0 °F 71% 30.00 in 10.0 mi ENE 5.8 mph - N/A   Mostly Cloudy
2:53 AM 73.9 °F 64.0 °F 71% 29.99 in 10.0 mi ENE 5.8 mph - N/A   Mostly Cloudy
3:53 AM 73.9 °F 64.9 °F 73% 29.97 in 10.0 mi ENE 5.8 mph - N/A   Scattered Clouds
4:53 AM 73.9 °F 64.0 °F 71% 29.96 in 10.0 mi East 10.4 mph - N/A   Mostly Cloudy
5:53 AM 73.0 °F 64.9 °F 76% 29.96 in 10.0 mi East 6.9 mph - N/A   Mostly Cloudy
6:53 AM 73.0 °F 66.0 °F 79% 29.97 in 10.0 mi East 6.9 mph - 0.00 in Rain Light Rain
7:53 AM 73.9 °F 66.9 °F 79% 29.99 in 10.0 mi East 5.8 mph - 0.00 in   Mostly Cloudy
8:53 AM 75.9 °F 66.9 °F 74% 30.01 in 10.0 mi East 6.9 mph - N/A   Mostly Cloudy
9:53 AM 77.0 °F 66.0 °F 69% 30.01 in 10.0 mi East 8.1 mph - N/A   Mostly Cloudy
10:53 AM 77.0 °F 66.0 °F 69% 30.00 in 10.0 mi East 10.4 mph - N/A   Mostly Cloudy
11:53 AM 78.1 °F 66.0 °F 66% 29.97 in 10.0 mi East 10.4 mph - N/A   Mostly Cloudy
12:53 PM 79.0 °F 66.0 °F 64% 29.94 in 10.0 mi East 12.7 mph - N/A   Mostly Cloudy
1:53 PM 79.0 °F 63.0 °F 58% 29.92 in 10.0 mi East 10.4 mph - N/A   Scattered Clouds
2:53 PM 78.1 °F 66.0 °F 66% 29.91 in 10.0 mi East 10.4 mph - N/A   Scattered Clouds
3:53 PM 79.0 °F 61.0 °F 54% 29.91 in 10.0 mi ESE 10.4 mph - N/A   Scattered Clouds
4:53 PM 75.9 °F 63.0 °F 64% 29.92 in 10.0 mi East 9.2 mph - N/A   Mostly Cloudy
5:53 PM 75.0 °F 64.0 °F 69% 29.94 in 10.0 mi ESE 5.8 mph - N/A   Mostly Cloudy
6:53 PM 75.0 °F 64.0 °F 69% 29.94 in 10.0 mi East 8.1 mph - N/A   Scattered Clouds
7:53 PM 71.1 °F 64.9 °F 81% 29.95 in 10.0 mi NW 4.6 mph - N/A   Scattered Clouds
8:04 PM 71.6 °F 64.4 °F 78% 29.96 in 10.0 mi WSW 4.6 mph - 0.00 in Rain Light Rain
8:39 PM 71.6 °F 68.0 °F 88% 29.96 in 10.0 mi Calm Calm - 0.05 in   Mostly Cloudy
8:53 PM 72.0 °F 68.0 °F 87% 29.95 in 10.0 mi Calm Calm - 0.05 in   Mostly Cloudy
9:53 PM 71.1 °F 68.0 °F 90% 29.95 in 10.0 mi Calm Calm - N/A   Scattered Clouds
10:53 PM 69.1 °F 66.9 °F 93% 29.96 in 10.0 mi Calm Calm - N/A   Scattered Clouds
11:53 PM 71.1 °F 64.0 °F 78% 29.95 in 10.0 mi SE 9.2 mph - N/A   Mostly Cloudy